Time,TemperatureF,DewpointF,PressureIn,WindDirection,WindDirectionDegrees,WindSpeedMPH,WindSpeedGustMPH,Humidity,HourlyPrecipIn,Conditions,Clouds,dailyrainin,SolarRadiationWatts/m^2,SoftwareType,DateUTC
2013-10-03 00:01:00,57.3,55.5,30.16,ESE,120,0.0,0.0,94,0.00,,,0.00,0,HR-IXPWINDi_r2_v1.2.,2013-10-03 04:01:00,
2013-10-03 00:06:00,56.9,55.4,30.15,ESE,120,0.0,0.0,95,0.00,,,0.00,0,HR-IXPWINDi_r2_v1.2.,2013-10-03 04:06:00,
2013-10-03 00:11:00,56.8,55.3,30.16,ESE,120,0.0,0.0,95,0.00,,,0.00,0,HR-IXPWINDi_r2_v1.2.,2013-10-03 04:11:00,
2013-10-03 00:16:00,56.8,55.3,30.16,ESE,121,0.0,0.0,95,0.00,,,0.00,0,HR-IXPWINDi_r2_v1.2.,2013-10-03 04:16:00,
2013-10-03 00:21:00,56.9,55.4,30.16,ESE,120,0.0,0.0,95,0.00,,,0.00,0,HR-IXPWINDi_r2_v1.2.,2013-10-03 04:21:00,
2013-10-03 00:27:00,56.5,55.0,30.16,ESE,120,0.0,0.0,95,0.00,,,0.00,0,HR-IXPWINDi_r2_v1.2.,2013-10-03 04:27:00,
2013-10-03 00:32:00,56.4,54.9,30.16,ESE,120,0.0,0.0,95,0.00,,,0.00,0,HR-IXPWINDi_r2_v1.2.,2013-10-03 04:32:00,
2013-10-03 00:37:00,56.6,55.1,30.16,ESE,121,0.0,0.0,95,0.00,,,0.00,0,HR-IXPWINDi_r2_v1.2.,2013-10-03 04:37:00,
2013-10-03 00:42:00,56.7,55.2,30.16,ESE,120,0.0,0.0,95,0.00,,,0.00,0,HR-IXPWINDi_r2_v1.2.,2013-10-03 04:42:00,
2013-10-03 00:47:00,56.5,54.7,30.16,ESE,120,0.0,0.0,94,0.00,,,0.00,0,HR-IXPWINDi_r2_v1.2.,2013-10-03 04:47:00,
2013-10-03 00:52:00,56.4,54.9,30.16,ESE,120,0.0,0.0,95,0.00,,,0.00,0,HR-IXPWINDi_r2_v1.2.,2013-10-03 04:52:00,
2013-10-03 00:57:00,56.2,54.7,30.15,ESE,120,0.0,0.0,95,0.00,,,0.00,0,HR-IXPWINDi_r2_v1.2.,2013-10-03 04:57:00,
2013-10-03 01:03:00,56.1,54.6,30.15,ESE,120,0.0,1.0,95,0.00,,,0.00,0,HR-IXPWINDi_r2_v1.2.,2013-10-03 05:03:00,
2013-10-03 01:08:00,56.0,54.5,30.15,ESE,120,0.0,1.0,95,0.00,,,0.00,0,HR-IXPWINDi_r2_v1.2.,2013-10-03 05:08:00,
2013-10-03 01:13:00,55.9,54.4,30.16,ESE,121,0.0,1.0,95,0.00,,,0.00,0,HR-IXPWINDi_r2_v1.2.,2013-10-03 05:13:00,
2013-10-03 01:18:00,56.0,54.8,30.16,ESE,120,0.0,1.0,96,0.00,,,0.00,0,HR-IXPWINDi_r2_v1.2.,2013-10-03 05:18:00,
2013-10-03 01:23:00,56.1,54.9,30.16,ESE,120,0.0,1.0,96,0.00,,,0.00,0,HR-IXPWINDi_r2_v1.2.,2013-10-03 05:23:00,
2013-10-03 01:28:00,56.0,54.8,30.16,ESE,121,0.0,1.0,96,0.00,,,0.00,0,HR-IXPWINDi_r2_v1.2.,2013-10-03 05:28:00,
2013-10-03 01:33:00,56.0,54.5,30.15,ESE,120,0.0,1.0,95,0.00,,,0.00,0,HR-IXPWINDi_r2_v1.2.,2013-10-03 05:33:00,
2013-10-03 01:39:00,55.8,54.6,30.16,ESE,121,0.0,1.0,96,0.00,,,0.00,0,HR-IXPWINDi_r2_v1.2.,2013-10-03 05:39:00,
2013-10-03 01:44:00,56.1,54.9,30.15,ESE,121,0.0,1.0,96,0.00,,,0.00,0,HR-IXPWINDi_r2_v1.2.,2013-10-03 05:44:00,
2013-10-03 01:49:00,56.2,55.0,30.15,ESE,120,0.0,0.0,96,0.00,,,0.00,0,HR-IXPWINDi_r2_v1.2.,2013-10-03 05:49:00,
2013-10-03 01:54:00,56.3,55.1,30.15,ESE,120,0.0,0.0,96,0.00,,,0.00,0,HR-IXPWINDi_r2_v1.2.,2013-10-03 05:54:00,
2013-10-03 01:59:00,56.4,55.2,30.15,ESE,121,0.0,0.0,96,0.00,,,0.00,0,HR-IXPWINDi_r2_v1.2.,2013-10-03 05:59:00,
2013-10-03 02:05:00,56.2,55.0,30.15,ESE,120,0.0,0.0,96,0.00,,,0.00,0,HR-IXPWINDi_r2_v1.2.,2013-10-03 06:05:00,
2013-10-03 02:10:00,56.1,54.9,30.15,ESE,120,0.0,0.0,96,0.00,,,0.00,0,HR-IXPWINDi_r2_v1.2.,2013-10-03 06:10:00,
2013-10-03 02:15:00,56.3,55.1,30.15,ESE,121,0.0,0.0,96,0.00,,,0.00,0,HR-IXPWINDi_r2_v1.2.,2013-10-03 06:15:00,
2013-10-03 02:20:00,56.4,55.2,30.15,ESE,121,0.0,1.0,96,0.00,,,0.00,0,HR-IXPWINDi_r2_v1.2.,2013-10-03 06:20:00,
2013-10-03 02:26:00,56.3,55.1,30.14,ESE,121,1.0,1.0,96,0.00,,,0.00,0,HR-IXPWINDi_r2_v1.2.,2013-10-03 06:26:00,
2013-10-03 02:31:00,56.4,55.2,30.14,ESE,120,0.0,2.0,96,0.00,,,0.00,0,HR-IXPWINDi_r2_v1.2.,2013-10-03 06:31:00,
2013-10-03 02:36:00,56.4,55.2,30.14,ESE,121,0.0,2.0,96,0.00,,,0.00,0,HR-IXPWINDi_r2_v1.2.,2013-10-03 06:36:00,
2013-10-03 02:41:00,56.3,55.1,30.14,ESE,120,0.0,0.0,96,0.00,,,0.00,0,HR-IXPWINDi_r2_v1.2.,2013-10-03 06:41:00,
2013-10-03 02:46:00,56.4,55.2,30.14,ESE,120,0.0,0.0,96,0.00,,,0.00,0,HR-IXPWINDi_r2_v1.2.,2013-10-03 06:46:00,
2013-10-03 02:51:00,56.5,55.3,30.14,ESE,121,0.0,0.0,96,0.00,,,0.00,0,HR-IXPWINDi_r2_v1.2.,2013-10-03 06:51:00,
2013-10-03 02:57:00,56.5,55.3,30.14,ESE,120,0.0,0.0,96,0.00,,,0.00,0,HR-IXPWINDi_r2_v1.2.,2013-10-03 06:57:00,
2013-10-03 03:02:00,56.5,55.3,30.14,ESE,121,0.0,0.0,96,0.00,,,0.00,0,HR-IXPWINDi_r2_v1.2.,2013-10-03 07:02:00,
2013-10-03 03:07:00,56.4,55.2,30.14,ESE,121,0.0,0.0,96,0.00,,,0.00,0,HR-IXPWINDi_r2_v1.2.,2013-10-03 07:07:00,
2013-10-03 03:12:00,56.2,55.0,30.14,ESE,121,0.0,0.0,96,0.00,,,0.00,0,HR-IXPWINDi_r2_v1.2.,2013-10-03 07:12:00,
2013-10-03 03:18:00,56.0,54.8,30.14,ESE,120,0.0,0.0,96,0.00,,,0.00,0,HR-IXPWINDi_r2_v1.2.,2013-10-03 07:18:00,
2013-10-03 03:23:00,56.1,54.9,30.13,ESE,121,0.0,0.0,96,0.00,,,0.00,0,HR-IXPWINDi_r2_v1.2.,2013-10-03 07:23:00,
2013-10-03 03:28:00,56.2,55.0,30.13,ESE,120,0.0,0.0,96,0.00,,,0.00,0,HR-IXPWINDi_r2_v1.2.,2013-10-03 07:28:00,
2013-10-03 03:33:00,55.9,54.7,30.13,ESE,120,0.0,0.0,96,0.00,,,0.00,0,HR-IXPWINDi_r2_v1.2.,2013-10-03 07:33:00,
2013-10-03 03:38:00,55.8,54.6,30.13,ESE,120,0.0,0.0,96,0.00,,,0.00,0,HR-IXPWINDi_r2_v1.2.,2013-10-03 07:38:00,
2013-10-03 03:43:00,55.8,54.6,30.13,ESE,120,0.0,0.0,96,0.00,,,0.00,0,HR-IXPWINDi_r2_v1.2.,2013-10-03 07:43:00,
2013-10-03 03:48:00,55.8,54.6,30.12,ESE,121,0.0,1.0,96,0.00,,,0.00,0,HR-IXPWINDi_r2_v1.2.,2013-10-03 07:48:00,
2013-10-03 03:53:00,55.6,54.4,30.12,ESE,120,0.0,1.0,96,0.00,,,0.00,0,HR-IXPWINDi_r2_v1.2.,2013-10-03 07:53:00,
2013-10-03 03:58:00,55.5,54.3,30.12,ESE,121,0.0,1.0,96,0.00,,,0.00,0,HR-IXPWINDi_r2_v1.2.,2013-10-03 07:58:00,
2013-10-03 04:04:00,55.6,54.7,30.12,ESE,120,0.0,1.0,97,0.00,,,0.00,0,HR-IXPWINDi_r2_v1.2.,2013-10-03 08:04:00,
2013-10-03 04:09:00,55.6,54.7,30.12,ESE,121,0.0,0.0,97,0.00,,,0.00,0,HR-IXPWINDi_r2_v1.2.,2013-10-03 08:09:00,
2013-10-03 04:14:00,55.6,54.7,30.12,ESE,120,0.0,0.0,97,0.00,,,0.00,0,HR-IXPWINDi_r2_v1.2.,2013-10-03 08:14:00,
2013-10-03 04:19:00,55.5,54.3,30.12,ESE,121,0.0,0.0,96,0.00,,,0.00,0,HR-IXPWINDi_r2_v1.2.,2013-10-03 08:19:00,
2013-10-03 04:25:00,55.6,54.7,30.12,ESE,120,0.0,0.0,97,0.00,,,0.00,0,HR-IXPWINDi_r2_v1.2.,2013-10-03 08:25:00,
2013-10-03 04:30:00,55.7,54.8,30.12,ESE,121,0.0,1.0,97,0.00,,,0.00,0,HR-IXPWINDi_r2_v1.2.,2013-10-03 08:30:00,
2013-10-03 04:35:00,55.7,54.8,30.12,ESE,121,0.0,1.0,97,0.00,,,0.00,0,HR-IXPWINDi_r2_v1.2.,2013-10-03 08:35:00,
2013-10-03 04:40:00,55.5,54.6,30.12,ESE,120,0.0,0.0,97,0.00,,,0.00,0,HR-IXPWINDi_r2_v1.2.,2013-10-03 08:40:00,
2013-10-03 04:45:00,55.3,54.1,30.12,ESE,121,0.0,0.0,96,0.00,,,0.00,0,HR-IXPWINDi_r2_v1.2.,2013-10-03 08:45:00,
2013-10-03 04:51:00,55.4,54.5,30.12,ESE,121,0.0,0.0,97,0.00,,,0.00,0,HR-IXPWINDi_r2_v1.2.,2013-10-03 08:51:00,
2013-10-03 04:56:00,55.3,54.4,30.13,ESE,121,0.0,0.0,97,0.00,,,0.00,0,HR-IXPWINDi_r2_v1.2.,2013-10-03 08:56:00,
2013-10-03 05:01:00,55.3,54.4,30.12,ESE,120,0.0,0.0,97,0.00,,,0.00,0,HR-IXPWINDi_r2_v1.2.,2013-10-03 09:01:00,
2013-10-03 05:06:00,55.1,54.2,30.12,ESE,120,0.0,0.0,97,0.00,,,0.00,0,HR-IXPWINDi_r2_v1.2.,2013-10-03 09:06:00,
2013-10-03 05:11:00,55.0,54.1,30.12,ESE,120,0.0,0.0,97,0.00,,,0.00,0,HR-IXPWINDi_r2_v1.2.,2013-10-03 09:11:00,
2013-10-03 05:17:00,55.1,54.2,30.12,ESE,121,0.0,0.0,97,0.00,,,0.00,0,HR-IXPWINDi_r2_v1.2.,2013-10-03 09:17:00,
2013-10-03 05:22:00,55.3,54.4,30.12,ESE,120,0.0,1.0,97,0.00,,,0.00,0,HR-IXPWINDi_r2_v1.2.,2013-10-03 09:22:00,
2013-10-03 05:27:00,55.5,54.6,30.12,ESE,120,0.0,1.0,97,0.00,,,0.00,0,HR-IXPWINDi_r2_v1.2.,2013-10-03 09:27:00,
2013-10-03 05:33:00,55.6,54.7,30.12,ESE,120,0.0,0.0,97,0.00,,,0.00,0,HR-IXPWINDi_r2_v1.2.,2013-10-03 09:33:00,
2013-10-03 05:38:00,55.5,54.6,30.12,ESE,120,0.0,1.0,97,0.00,,,0.00,0,HR-IXPWINDi_r2_v1.2.,2013-10-03 09:38:00,
2013-10-03 05:43:00,55.6,54.7,30.12,ESE,120,0.0,1.0,97,0.00,,,0.00,0,HR-IXPWINDi_r2_v1.2.,2013-10-03 09:43:00,
2013-10-03 05:48:00,55.3,54.4,30.12,ESE,121,0.0,0.0,97,0.00,,,0.00,0,HR-IXPWINDi_r2_v1.2.,2013-10-03 09:48:00,
2013-10-03 05:53:00,55.3,54.4,30.13,ESE,121,0.0,1.0,97,0.00,,,0.00,0,HR-IXPWINDi_r2_v1.2.,2013-10-03 09:53:00,
2013-10-03 05:58:00,55.4,54.5,30.13,ESE,120,0.0,1.0,97,0.00,,,0.00,0,HR-IXPWINDi_r2_v1.2.,2013-10-03 09:58:00,
2013-10-03 06:04:00,55.6,54.7,30.13,ESE,120,0.0,0.0,97,0.00,,,0.00,0,HR-IXPWINDi_r2_v1.2.,2013-10-03 10:04:00,
2013-10-03 06:09:00,55.7,54.8,30.13,ESE,121,0.0,1.0,97,0.00,,,0.00,0,HR-IXPWINDi_r2_v1.2.,2013-10-03 10:09:00,
2013-10-03 06:14:00,55.7,54.8,30.13,ESE,121,0.0,1.0,97,0.00,,,0.00,0,HR-IXPWINDi_r2_v1.2.,2013-10-03 10:14:00,
2013-10-03 06:19:00,55.8,54.9,30.13,ESE,121,0.0,0.0,97,0.00,,,0.00,0,HR-IXPWINDi_r2_v1.2.,2013-10-03 10:19:00,
2013-10-03 06:24:00,55.9,55.0,30.13,ESE,121,0.0,1.0,97,0.00,,,0.00,0,HR-IXPWINDi_r2_v1.2.,2013-10-03 10:24:00,
2013-10-03 06:29:00,55.9,55.0,30.13,ESE,120,0.0,1.0,97,0.00,,,0.00,0,HR-IXPWINDi_r2_v1.2.,2013-10-03 10:29:00,
2013-10-03 06:34:00,55.9,55.0,30.13,ESE,121,0.0,0.0,97,0.00,,,0.00,0,HR-IXPWINDi_r2_v1.2.,2013-10-03 10:34:00,
2013-10-03 06:39:00,55.9,55.0,30.13,ESE,120,0.0,0.0,97,0.00,,,0.00,0,HR-IXPWINDi_r2_v1.2.,2013-10-03 10:39:00,
2013-10-03 06:45:00,55.9,55.0,30.13,ESE,120,0.0,0.0,97,0.00,,,0.00,0,HR-IXPWINDi_r2_v1.2.,2013-10-03 10:45:00,
2013-10-03 06:50:00,55.9,55.0,30.13,ESE,120,0.0,0.0,97,0.00,,,0.00,0,HR-IXPWINDi_r2_v1.2.,2013-10-03 10:50:00,
2013-10-03 06:55:00,55.8,54.9,30.13,ESE,121,0.0,1.0,97,0.00,,,0.00,0,HR-IXPWINDi_r2_v1.2.,2013-10-03 10:55:00,
2013-10-03 07:00:00,55.7,54.8,30.13,ESE,120,0.0,1.0,97,0.00,,,0.00,0,HR-IXPWINDi_r2_v1.2.,2013-10-03 11:00:00,
2013-10-03 07:05:00,55.7,54.8,30.13,ESE,120,0.0,0.0,97,0.00,,,0.00,0,HR-IXPWINDi_r2_v1.2.,2013-10-03 11:05:00,
2013-10-03 07:10:00,55.7,54.8,30.13,ESE,120,0.0,0.0,97,0.00,,,0.00,0,HR-IXPWINDi_r2_v1.2.,2013-10-03 11:10:00,
2013-10-03 07:16:00,55.5,54.6,30.14,ESE,120,0.0,0.0,97,0.00,,,0.00,0,HR-IXPWINDi_r2_v1.2.,2013-10-03 11:16:00,
2013-10-03 07:21:00,55.5,54.6,30.13,ESE,121,0.0,0.0,97,0.00,,,0.00,0,HR-IXPWINDi_r2_v1.2.,2013-10-03 11:21:00,
2013-10-03 07:26:00,55.4,54.5,30.13,ESE,121,0.0,0.0,97,0.00,,,0.00,0,HR-IXPWINDi_r2_v1.2.,2013-10-03 11:26:00,
2013-10-03 07:31:00,55.4,54.5,30.14,ESE,121,0.0,0.0,97,0.00,,,0.00,0,HR-IXPWINDi_r2_v1.2.,2013-10-03 11:31:00,
2013-10-03 07:36:00,55.4,54.5,30.14,ESE,121,0.0,0.0,97,0.00,,,0.00,7,HR-IXPWINDi_r2_v1.2.,2013-10-03 11:36:00,
2013-10-03 07:41:00,55.4,54.5,30.14,ESE,121,0.0,0.0,97,0.00,,,0.00,9,HR-IXPWINDi_r2_v1.2.,2013-10-03 11:41:00,
2013-10-03 07:47:00,55.4,54.5,30.14,ESE,120,0.0,0.0,97,0.00,,,0.00,12,HR-IXPWINDi_r2_v1.2.,2013-10-03 11:47:00,
2013-10-03 07:52:00,55.4,54.5,30.14,ESE,120,0.0,0.0,97,0.00,,,0.00,16,HR-IXPWINDi_r2_v1.2.,2013-10-03 11:52:00,
2013-10-03 07:57:00,55.4,54.5,30.14,ESE,121,0.0,1.0,97,0.00,,,0.00,19,HR-IXPWINDi_r2_v1.2.,2013-10-03 11:57:00,
2013-10-03 08:02:00,55.4,54.5,30.14,ESE,121,0.0,1.0,97,0.00,,,0.00,33,HR-IXPWINDi_r2_v1.2.,2013-10-03 12:02:00,
2013-10-03 08:07:00,55.5,54.6,30.15,ESE,121,0.0,0.0,97,0.00,,,0.00,37,HR-IXPWINDi_r2_v1.2.,2013-10-03 12:07:00,
2013-10-03 08:13:00,55.7,54.8,30.15,ESE,121,0.0,0.0,97,0.00,,,0.00,39,HR-IXPWINDi_r2_v1.2.,2013-10-03 12:13:00,
2013-10-03 08:18:00,55.9,55.0,30.15,ESE,121,0.0,0.0,97,0.00,,,0.00,42,HR-IXPWINDi_r2_v1.2.,2013-10-03 12:18:00,
2013-10-03 08:23:00,56.0,55.1,30.15,ESE,121,0.0,1.0,97,0.00,,,0.00,47,HR-IXPWINDi_r2_v1.2.,2013-10-03 12:23:00,
2013-10-03 08:28:00,56.2,55.3,30.15,ESE,120,0.0,1.0,97,0.00,,,0.00,54,HR-IXPWINDi_r2_v1.2.,2013-10-03 12:28:00,
2013-10-03 08:34:00,56.4,55.5,30.15,ESE,120,0.0,0.0,97,0.00,,,0.00,58,HR-IXPWINDi_r2_v1.2.,2013-10-03 12:34:00,
2013-10-03 08:39:00,56.4,55.5,30.15,ESE,121,0.0,0.0,97,0.00,,,0.00,62,HR-IXPWINDi_r2_v1.2.,2013-10-03 12:39:00,
2013-10-03 08:44:00,56.7,55.8,30.15,ESE,121,0.0,0.0,97,0.00,,,0.00,70,HR-IXPWINDi_r2_v1.2.,2013-10-03 12:44:00,
2013-10-03 08:49:00,56.8,55.9,30.15,ESE,121,0.0,1.0,97,0.00,,,0.00,76,HR-IXPWINDi_r2_v1.2.,2013-10-03 12:49:00,
2013-10-03 08:54:00,57.1,56.5,30.16,ESE,120,0.0,1.0,98,0.00,,,0.00,77,HR-IXPWINDi_r2_v1.2.,2013-10-03 12:54:00,
2013-10-03 09:00:00,57.3,56.4,30.15,ESE,120,0.0,0.0,97,0.00,,,0.00,76,HR-IXPWINDi_r2_v1.2.,2013-10-03 13:00:00,
2013-10-03 09:06:00,57.8,57.2,30.15,ESE,120,0.0,0.0,98,0.00,,,0.00,83,HR-IXPWINDi_r2_v1.2.,2013-10-03 13:06:00,
2013-10-03 09:11:00,57.9,57.0,30.15,ESE,120,0.0,0.0,97,0.00,,,0.00,90,HR-IXPWINDi_r2_v1.2.,2013-10-03 13:11:00,
2013-10-03 09:16:00,58.0,57.1,30.16,ESE,121,0.0,0.0,97,0.00,,,0.00,74,HR-IXPWINDi_r2_v1.2.,2013-10-03 13:16:00,
2013-10-03 09:21:00,58.1,57.2,30.16,ESE,121,0.0,0.0,97,0.00,,,0.00,60,HR-IXPWINDi_r2_v1.2.,2013-10-03 13:21:00,
2013-10-03 09:26:00,58.4,57.5,30.16,ESE,121,0.0,1.0,97,0.00,,,0.00,74,HR-IXPWINDi_r2_v1.2.,2013-10-03 13:26:00,
2013-10-03 09:31:00,58.5,57.6,30.16,ESE,120,0.0,4.0,97,0.00,,,0.00,113,HR-IXPWINDi_r2_v1.2.,2013-10-03 13:31:00,
2013-10-03 09:37:00,58.5,57.6,30.16,ESE,121,0.0,4.0,97,0.00,,,0.00,102,HR-IXPWINDi_r2_v1.2.,2013-10-03 13:37:00,
2013-10-03 09:42:00,58.8,57.9,30.16,ESE,121,0.0,4.0,97,0.00,,,0.00,111,HR-IXPWINDi_r2_v1.2.,2013-10-03 13:42:00,
2013-10-03 09:47:00,58.8,57.9,30.17,ESE,121,0.0,0.0,97,0.00,,,0.00,134,HR-IXPWINDi_r2_v1.2.,2013-10-03 13:47:00,
2013-10-03 09:52:00,59.1,57.9,30.17,ESE,120,0.0,1.0,96,0.00,,,0.00,171,HR-IXPWINDi_r2_v1.2.,2013-10-03 13:52:00,
2013-10-03 09:58:00,60.7,59.8,30.17,ESE,121,0.0,1.0,97,0.00,,,0.00,526,HR-IXPWINDi_r2_v1.2.,2013-10-03 13:58:00,
2013-10-03 10:03:00,61.4,60.2,30.16,ESE,121,0.0,4.0,96,0.00,,,0.00,176,HR-IXPWINDi_r2_v1.2.,2013-10-03 14:03:00,
2013-10-03 10:08:00,61.9,60.4,30.16,ESE,121,0.0,4.0,95,0.00,,,0.00,192,HR-IXPWINDi_r2_v1.2.,2013-10-03 14:08:00,
2013-10-03 10:13:00,62.5,60.7,30.16,ESE,120,0.0,1.0,94,0.00,,,0.00,209,HR-IXPWINDi_r2_v1.2.,2013-10-03 14:13:00,
2013-10-03 10:18:00,62.9,60.8,30.16,ESE,121,1.0,2.0,93,0.00,,,0.00,218,HR-IXPWINDi_r2_v1.2.,2013-10-03 14:18:00,
2013-10-03 10:24:00,63.0,60.9,30.16,ESE,120,1.0,2.0,93,0.00,,,0.00,234,HR-IXPWINDi_r2_v1.2.,2013-10-03 14:24:00,
2013-10-03 10:29:00,63.3,61.2,30.16,ESE,121,0.0,4.0,93,0.00,,,0.00,253,HR-IXPWINDi_r2_v1.2.,2013-10-03 14:29:00,
2013-10-03 10:34:00,64.0,61.6,30.16,ESE,121,1.0,4.0,92,0.00,,,0.00,287,HR-IXPWINDi_r2_v1.2.,2013-10-03 14:34:00,
2013-10-03 10:39:00,64.4,61.6,30.15,ESE,121,0.0,5.0,91,0.00,,,0.00,279,HR-IXPWINDi_r2_v1.2.,2013-10-03 14:39:00,
2013-10-03 10:44:00,65.0,61.9,30.15,ESE,121,0.0,5.0,90,0.00,,,0.00,309,HR-IXPWINDi_r2_v1.2.,2013-10-03 14:44:00,
2013-10-03 10:49:00,65.2,61.8,30.15,ESE,121,0.0,2.0,89,0.00,,,0.00,294,HR-IXPWINDi_r2_v1.2.,2013-10-03 14:49:00,
2013-10-03 10:54:00,65.8,62.1,30.15,ESE,121,0.0,2.0,88,0.00,,,0.00,260,HR-IXPWINDi_r2_v1.2.,2013-10-03 14:54:00,
2013-10-03 11:00:00,66.1,61.7,30.15,South,171,4.0,5.0,86,0.00,,,0.00,271,HR-IXPWINDi_r2_v1.2.,2013-10-03 15:00:00,
2013-10-03 11:05:00,66.2,62.1,30.15,South,190,1.0,6.0,87,0.00,,,0.00,316,HR-IXPWINDi_r2_v1.2.,2013-10-03 15:05:00,
2013-10-03 11:10:00,67.3,62.6,30.15,SSW,195,0.0,6.0,85,0.00,,,0.00,475,HR-IXPWINDi_r2_v1.2.,2013-10-03 15:10:00,
2013-10-03 11:15:00,67.5,62.1,30.15,South,184,0.0,5.0,83,0.00,,,0.00,427,HR-IXPWINDi_r2_v1.2.,2013-10-03 15:15:00,
2013-10-03 11:20:00,67.6,61.5,30.15,South,184,0.0,5.0,81,0.00,,,0.00,378,HR-IXPWINDi_r2_v1.2.,2013-10-03 15:20:00,
2013-10-03 11:26:00,68.8,62.3,30.15,South,186,1.0,7.0,80,0.00,,,0.00,777,HR-IXPWINDi_r2_v1.2.,2013-10-03 15:26:00,
2013-10-03 11:31:00,69.2,63.1,30.14,SSE,158,0.0,7.0,81,0.00,,,0.00,657,HR-IXPWINDi_r2_v1.2.,2013-10-03 15:31:00,
2013-10-03 11:36:00,70.4,63.2,30.14,SSE,153,0.0,6.0,78,0.00,,,0.00,450,HR-IXPWINDi_r2_v1.2.,2013-10-03 15:36:00,
2013-10-03 11:41:00,70.4,63.5,30.14,SSE,166,2.0,7.0,79,0.00,,,0.00,673,HR-IXPWINDi_r2_v1.2.,2013-10-03 15:41:00,
2013-10-03 11:46:00,71.1,63.8,30.14,SSW,196,6.0,7.0,78,0.00,,,0.00,322,HR-IXPWINDi_r2_v1.2.,2013-10-03 15:46:00,
2013-10-03 11:52:00,70.2,63.0,30.14,SSW,197,4.0,6.0,78,0.00,,,0.00,274,HR-IXPWINDi_r2_v1.2.,2013-10-03 15:52:00,
2013-10-03 11:57:00,70.0,63.1,30.14,SSW,199,3.0,6.0,79,0.00,,,0.00,285,HR-IXPWINDi_r2_v1.2.,2013-10-03 15:57:00,
2013-10-03 12:02:00,70.1,62.5,30.14,SSW,204,1.0,6.0,77,0.00,,,0.00,237,HR-IXPWINDi_r2_v1.2.,2013-10-03 16:02:00,
2013-10-03 12:07:00,69.9,61.9,30.14,South,188,0.0,7.0,76,0.00,,,0.00,220,HR-IXPWINDi_r2_v1.2.,2013-10-03 16:07:00,
2013-10-03 12:12:00,69.8,62.2,30.13,South,188,3.0,7.0,77,0.00,,,0.00,221,HR-IXPWINDi_r2_v1.2.,2013-10-03 16:12:00,
2013-10-03 12:17:00,70.0,62.8,30.14,SSW,192,3.0,5.0,78,0.00,,,0.00,290,HR-IXPWINDi_r2_v1.2.,2013-10-03 16:17:00,
2013-10-03 12:23:00,70.8,63.5,30.14,South,169,4.0,5.0,78,0.00,,,0.00,429,HR-IXPWINDi_r2_v1.2.,2013-10-03 16:23:00,
2013-10-03 12:28:00,71.0,63.7,30.14,SSW,198,0.0,7.0,78,0.00,,,0.00,508,HR-IXPWINDi_r2_v1.2.,2013-10-03 16:28:00,
2013-10-03 12:33:00,71.3,63.7,30.14,SSW,207,8.0,9.0,77,0.00,,,0.00,571,HR-IXPWINDi_r2_v1.2.,2013-10-03 16:33:00,
2013-10-03 12:39:00,70.8,63.2,30.14,SSE,153,5.0,11.0,77,0.00,,,0.00,418,HR-IXPWINDi_r2_v1.2.,2013-10-03 16:39:00,
2013-10-03 12:44:00,70.6,63.7,30.13,South,186,3.0,11.0,79,0.00,,,0.01,555,HR-IXPWINDi_r2_v1.2.,2013-10-03 16:44:00,
2013-10-03 12:49:00,71.1,63.5,30.13,SSE,156,4.0,8.0,77,0.00,,,0.01,802,HR-IXPWINDi_r2_v1.2.,2013-10-03 16:49:00,
2013-10-03 12:54:00,72.0,64.0,30.13,South,180,6.0,8.0,76,0.00,,,0.01,745,HR-IXPWINDi_r2_v1.2.,2013-10-03 16:54:00,
2013-10-03 12:59:00,72.4,63.6,30.13,South,191,2.0,8.0,74,0.00,,,0.01,722,HR-IXPWINDi_r2_v1.2.,2013-10-03 16:59:00,
2013-10-03 13:04:00,72.7,62.7,30.13,SSE,163,2.0,7.0,71,0.00,,,0.01,719,HR-IXPWINDi_r2_v1.2.,2013-10-03 17:04:00,
2013-10-03 13:10:00,73.5,62.2,30.13,SSE,159,5.0,7.0,68,0.00,,,0.01,726,HR-IXPWINDi_r2_v1.2.,2013-10-03 17:10:00,
2013-10-03 13:15:00,74.0,62.3,30.13,SE,138,6.0,7.0,67,0.00,,,0.01,738,HR-IXPWINDi_r2_v1.2.,2013-10-03 17:15:00,
2013-10-03 13:20:00,74.2,62.5,30.13,SSE,157,4.0,7.0,67,0.00,,,0.01,747,HR-IXPWINDi_r2_v1.2.,2013-10-03 17:20:00,
2013-10-03 13:25:00,74.0,62.3,30.12,SSE,155,7.0,10.0,67,0.00,,,0.01,733,HR-IXPWINDi_r2_v1.2.,2013-10-03 17:25:00,
2013-10-03 13:30:00,74.5,62.8,30.12,South,179,8.0,10.0,67,0.00,,,0.01,722,HR-IXPWINDi_r2_v1.2.,2013-10-03 17:30:00,
2013-10-03 13:36:00,75.1,62.5,30.12,South,188,7.0,8.0,65,0.00,,,0.01,715,HR-IXPWINDi_r2_v1.2.,2013-10-03 17:36:00,
2013-10-03 13:41:00,74.9,62.3,30.12,SSW,196,6.0,9.0,65,0.00,,,0.01,726,HR-IXPWINDi_r2_v1.2.,2013-10-03 17:41:00,
2013-10-03 13:46:00,75.2,62.6,30.11,SSW,198,1.0,9.0,65,0.00,,,0.01,728,HR-IXPWINDi_r2_v1.2.,2013-10-03 17:46:00,
2013-10-03 13:51:00,75.6,62.1,30.11,South,184,5.0,9.0,63,0.00,,,0.01,735,HR-IXPWINDi_r2_v1.2.,2013-10-03 17:51:00,
2013-10-03 13:56:00,75.9,61.0,30.11,South,182,1.0,7.0,60,0.00,,,0.01,708,HR-IXPWINDi_r2_v1.2.,2013-10-03 17:56:00,
2013-10-03 14:02:00,75.7,61.2,30.11,SE,134,2.0,6.0,61,0.00,,,0.01,710,HR-IXPWINDi_r2_v1.2.,2013-10-03 18:02:00,
2013-10-03 14:07:00,76.4,61.4,30.10,SSE,149,4.0,6.0,60,0.00,,,0.01,700,HR-IXPWINDi_r2_v1.2.,2013-10-03 18:07:00,
2013-10-03 14:12:00,76.2,60.3,30.10,SSE,148,2.0,7.0,58,0.00,,,0.01,693,HR-IXPWINDi_r2_v1.2.,2013-10-03 18:12:00,
2013-10-03 14:17:00,75.9,60.5,30.10,ESE,121,4.0,7.0,59,0.00,,,0.01,684,HR-IXPWINDi_r2_v1.2.,2013-10-03 18:17:00,
2013-10-03 14:22:00,76.7,61.2,30.10,SE,140,5.0,7.0,59,0.00,,,0.01,679,HR-IXPWINDi_r2_v1.2.,2013-10-03 18:22:00,
2013-10-03 14:27:00,76.7,60.8,30.10,SSE,160,5.0,7.0,58,0.00,,,0.01,677,HR-IXPWINDi_r2_v1.2.,2013-10-03 18:27:00,
2013-10-03 14:33:00,76.5,61.1,30.09,South,186,2.0,7.0,59,0.00,,,0.01,670,HR-IXPWINDi_r2_v1.2.,2013-10-03 18:33:00,
2013-10-03 14:38:00,77.3,61.8,30.09,SE,140,0.0,7.0,59,0.00,,,0.01,664,HR-IXPWINDi_r2_v1.2.,2013-10-03 18:38:00,
2013-10-03 14:43:00,77.1,60.6,30.09,ESE,123,2.0,9.0,57,0.00,,,0.01,659,HR-IXPWINDi_r2_v1.2.,2013-10-03 18:43:00,
2013-10-03 14:48:00,76.9,60.5,30.09,SSE,157,5.0,9.0,57,0.00,,,0.01,649,HR-IXPWINDi_r2_v1.2.,2013-10-03 18:48:00,
2013-10-03 14:53:00,76.9,60.9,30.09,South,169,2.0,8.0,58,0.00,,,0.01,642,HR-IXPWINDi_r2_v1.2.,2013-10-03 18:53:00,
2013-10-03 14:58:00,77.4,61.4,30.08,SSW,204,4.0,8.0,58,0.00,,,0.01,631,HR-IXPWINDi_r2_v1.2.,2013-10-03 18:58:00,
2013-10-03 15:03:00,77.6,62.6,30.08,South,190,2.0,8.0,60,0.00,,,0.01,619,HR-IXPWINDi_r2_v1.2.,2013-10-03 19:03:00,
2013-10-03 15:08:00,77.6,62.1,30.08,NNW,346,3.0,8.0,59,0.00,,,0.01,603,HR-IXPWINDi_r2_v1.2.,2013-10-03 19:08:00,
2013-10-03 15:14:00,77.8,60.8,30.08,SSW,204,4.0,6.0,56,0.00,,,0.01,596,HR-IXPWINDi_r2_v1.2.,2013-10-03 19:14:00,
2013-10-03 15:19:00,78.5,61.5,30.08,WNW,291,0.0,6.0,56,0.00,,,0.01,596,HR-IXPWINDi_r2_v1.2.,2013-10-03 19:19:00,
2013-10-03 15:24:00,78.6,62.5,30.08,SSE,149,2.0,4.0,58,0.00,,,0.01,592,HR-IXPWINDi_r2_v1.2.,2013-10-03 19:24:00,
2013-10-03 15:29:00,79.1,62.0,30.08,SSW,208,6.0,7.0,56,0.00,,,0.01,601,HR-IXPWINDi_r2_v1.2.,2013-10-03 19:29:00,
2013-10-03 15:34:00,78.0,62.0,30.08,South,191,9.0,9.0,58,0.00,,,0.01,573,HR-IXPWINDi_r2_v1.2.,2013-10-03 19:34:00,
2013-10-03 15:39:00,78.5,60.9,30.07,South,186,0.0,9.0,55,0.00,,,0.01,533,HR-IXPWINDi_r2_v1.2.,2013-10-03 19:39:00,
2013-10-03 15:44:00,77.8,60.8,30.07,SSW,194,3.0,9.0,56,0.00,,,0.01,538,HR-IXPWINDi_r2_v1.2.,2013-10-03 19:44:00,
2013-10-03 15:50:00,77.6,60.1,30.07,SSE,163,2.0,7.0,55,0.00,,,0.01,534,HR-IXPWINDi_r2_v1.2.,2013-10-03 19:50:00,
2013-10-03 15:55:00,79.2,62.6,30.07,SSE,163,0.0,7.0,57,0.00,,,0.01,455,HR-IXPWINDi_r2_v1.2.,2013-10-03 19:55:00,
2013-10-03 16:00:00,77.8,60.3,30.07,South,182,2.0,7.0,55,0.00,,,0.01,512,HR-IXPWINDi_r2_v1.2.,2013-10-03 20:00:00,
2013-10-03 16:05:00,77.7,60.7,30.07,SE,142,5.0,7.0,56,0.00,,,0.01,492,HR-IXPWINDi_r2_v1.2.,2013-10-03 20:05:00,
2013-10-03 16:10:00,78.0,59.4,30.07,SE,145,1.0,6.0,53,0.00,,,0.01,471,HR-IXPWINDi_r2_v1.2.,2013-10-03 20:10:00,
2013-10-03 16:15:00,78.1,61.1,30.06,South,189,4.0,6.0,56,0.00,,,0.01,88,HR-IXPWINDi_r2_v1.2.,2013-10-03 20:15:00,
2013-10-03 16:21:00,77.6,60.1,30.06,South,189,0.0,6.0,55,0.00,,,0.01,436,HR-IXPWINDi_r2_v1.2.,2013-10-03 20:21:00,
2013-10-03 16:26:00,77.8,59.8,30.06,SSE,155,1.0,6.0,54,0.00,,,0.01,431,HR-IXPWINDi_r2_v1.2.,2013-10-03 20:26:00,
2013-10-03 16:31:00,77.9,59.9,30.06,SSE,159,0.0,5.0,54,0.00,,,0.01,411,HR-IXPWINDi_r2_v1.2.,2013-10-03 20:31:00,
2013-10-03 16:36:00,77.4,60.4,30.06,SSE,159,0.0,4.0,56,0.00,,,0.01,105,HR-IXPWINDi_r2_v1.2.,2013-10-03 20:36:00,
2013-10-03 16:41:00,77.1,59.1,30.06,SSE,159,0.0,2.0,54,0.00,,,0.01,120,HR-IXPWINDi_r2_v1.2.,2013-10-03 20:41:00,
2013-10-03 16:46:00,78.3,62.3,30.06,SSE,159,0.0,1.0,58,0.00,,,0.01,390,HR-IXPWINDi_r2_v1.2.,2013-10-03 20:46:00,
2013-10-03 16:51:00,77.6,61.1,30.06,SSE,159,0.0,4.0,57,0.00,,,0.01,359,HR-IXPWINDi_r2_v1.2.,2013-10-03 20:51:00,
2013-10-03 16:56:00,77.7,63.6,30.07,South,175,2.0,5.0,62,0.00,,,0.01,348,HR-IXPWINDi_r2_v1.2.,2013-10-03 20:56:00,
2013-10-03 17:01:00,77.4,61.9,30.06,South,182,0.0,5.0,59,0.00,,,0.01,329,HR-IXPWINDi_r2_v1.2.,2013-10-03 21:01:00,
2013-10-03 17:06:00,77.1,60.6,30.06,SSE,161,2.0,6.0,57,0.00,,,0.01,311,HR-IXPWINDi_r2_v1.2.,2013-10-03 21:06:00,
2013-10-03 17:11:00,77.1,62.1,30.06,SSE,168,0.0,6.0,60,0.00,,,0.01,86,HR-IXPWINDi_r2_v1.2.,2013-10-03 21:11:00,
2013-10-03 17:16:00,76.8,61.8,30.07,SSE,163,0.0,5.0,60,0.00,,,0.01,279,HR-IXPWINDi_r2_v1.2.,2013-10-03 21:16:00,
2013-10-03 17:21:00,76.7,64.9,30.07,SSE,163,2.0,4.0,67,0.00,,,0.01,239,HR-IXPWINDi_r2_v1.2.,2013-10-03 21:21:00,
2013-10-03 17:27:00,74.8,64.3,30.06,SE,130,0.0,4.0,70,0.00,,,0.01,51,HR-IXPWINDi_r2_v1.2.,2013-10-03 21:27:00,
2013-10-03 17:32:00,73.2,64.4,30.06,SE,130,1.0,4.0,74,0.00,,,0.01,46,HR-IXPWINDi_r2_v1.2.,2013-10-03 21:32:00,
2013-10-03 17:37:00,72.4,63.2,30.07,SSE,156,2.0,4.0,73,0.00,,,0.01,40,HR-IXPWINDi_r2_v1.2.,2013-10-03 21:37:00,
2013-10-03 17:42:00,72.3,63.5,30.07,SSE,147,1.0,4.0,74,0.00,,,0.01,42,HR-IXPWINDi_r2_v1.2.,2013-10-03 21:42:00,
2013-10-03 17:47:00,72.3,63.9,30.07,SE,128,0.0,4.0,75,0.00,,,0.01,42,HR-IXPWINDi_r2_v1.2.,2013-10-03 21:47:00,
2013-10-03 17:52:00,73.0,64.2,30.07,SE,128,0.0,4.0,74,0.00,,,0.01,37,HR-IXPWINDi_r2_v1.2.,2013-10-03 21:52:00,
2013-10-03 17:57:00,73.0,64.2,30.07,SE,128,0.0,0.0,74,0.00,,,0.01,49,HR-IXPWINDi_r2_v1.2.,2013-10-03 21:57:00,
2013-10-03 18:03:00,72.0,64.3,30.07,SE,128,0.0,1.0,77,0.00,,,0.01,54,HR-IXPWINDi_r2_v1.2.,2013-10-03 22:03:00,
2013-10-03 18:08:00,71.8,64.5,30.08,SE,128,0.0,1.0,78,0.00,,,0.01,47,HR-IXPWINDi_r2_v1.2.,2013-10-03 22:08:00,
2013-10-03 18:13:00,71.2,64.3,30.08,SE,128,0.0,2.0,79,0.00,,,0.01,37,HR-IXPWINDi_r2_v1.2.,2013-10-03 22:13:00,
2013-10-03 18:18:00,70.5,64.7,30.08,SE,128,0.0,2.0,82,0.00,,,0.01,30,HR-IXPWINDi_r2_v1.2.,2013-10-03 22:18:00,
2013-10-03 18:23:00,70.2,64.7,30.08,SE,128,0.0,1.0,83,0.00,,,0.01,23,HR-IXPWINDi_r2_v1.2.,2013-10-03 22:23:00,
2013-10-03 18:29:00,70.0,64.9,30.08,SE,128,0.0,1.0,84,0.00,,,0.01,19,HR-IXPWINDi_r2_v1.2.,2013-10-03 22:29:00,
2013-10-03 18:34:00,69.9,64.8,30.08,SE,128,0.0,0.0,84,0.00,,,0.01,16,HR-IXPWINDi_r2_v1.2.,2013-10-03 22:34:00,
2013-10-03 18:39:00,70.0,64.5,30.08,SE,128,0.0,4.0,83,0.00,,,0.01,12,HR-IXPWINDi_r2_v1.2.,2013-10-03 22:39:00,
2013-10-03 18:44:00,70.1,65.0,30.08,SE,128,0.0,4.0,84,0.00,,,0.01,11,HR-IXPWINDi_r2_v1.2.,2013-10-03 22:44:00,
2013-10-03 18:49:00,70.0,64.9,30.08,SE,128,1.0,4.0,84,0.00,,,0.01,7,HR-IXPWINDi_r2_v1.2.,2013-10-03 22:49:00,
2013-10-03 18:55:00,69.6,64.8,30.08,SE,128,1.0,4.0,85,0.00,,,0.01,5,HR-IXPWINDi_r2_v1.2.,2013-10-03 22:55:00,
2013-10-03 19:00:00,69.3,64.9,30.08,SE,128,2.0,4.0,86,0.00,,,0.01,0,HR-IXPWINDi_r2_v1.2.,2013-10-03 23:00:00,
2013-10-03 19:05:00,69.2,64.8,30.09,SE,128,0.0,4.0,86,0.00,,,0.01,0,HR-IXPWINDi_r2_v1.2.,2013-10-03 23:05:00,
2013-10-03 19:10:00,69.0,64.9,30.09,SE,128,0.0,2.0,87,0.00,,,0.01,0,HR-IXPWINDi_r2_v1.2.,2013-10-03 23:10:00,
2013-10-03 19:15:00,68.5,64.4,30.09,SE,128,0.0,4.0,87,0.00,,,0.01,0,HR-IXPWINDi_r2_v1.2.,2013-10-03 23:15:00,
2013-10-03 19:21:00,68.6,64.5,30.08,SE,124,0.0,4.0,87,0.00,,,0.01,0,HR-IXPWINDi_r2_v1.2.,2013-10-03 23:21:00,
2013-10-03 19:26:00,68.8,64.4,30.09,SE,124,0.0,5.0,86,0.00,,,0.01,0,HR-IXPWINDi_r2_v1.2.,2013-10-03 23:26:00,
2013-10-03 19:31:00,68.7,64.6,30.08,NNE,17,0.0,5.0,87,0.00,,,0.01,0,HR-IXPWINDi_r2_v1.2.,2013-10-03 23:31:00,
2013-10-03 19:36:00,68.8,64.4,30.09,NNE,26,0.0,4.0,86,0.00,,,0.01,0,HR-IXPWINDi_r2_v1.2.,2013-10-03 23:36:00,
2013-10-03 19:41:00,68.8,64.4,30.08,East,101,1.0,2.0,86,0.00,,,0.01,0,HR-IXPWINDi_r2_v1.2.,2013-10-03 23:41:00,
2013-10-03 19:47:00,68.2,64.4,30.08,East,101,0.0,2.0,88,0.00,,,0.01,0,HR-IXPWINDi_r2_v1.2.,2013-10-03 23:47:00,
2013-10-03 19:52:00,68.3,64.2,30.09,East,101,1.0,2.0,87,0.00,,,0.01,0,HR-IXPWINDi_r2_v1.2.,2013-10-03 23:52:00,
2013-10-03 19:57:00,68.1,64.3,30.09,ESE,107,0.0,4.0,88,0.00,,,0.01,0,HR-IXPWINDi_r2_v1.2.,2013-10-03 23:57:00,
2013-10-03 20:02:00,68.1,64.3,30.09,ESE,107,0.0,4.0,88,0.00,,,0.01,0,HR-IXPWINDi_r2_v1.2.,2013-10-04 00:02:00,
2013-10-03 20:07:00,68.1,64.3,30.09,ESE,111,2.0,5.0,88,0.00,,,0.01,0,HR-IXPWINDi_r2_v1.2.,2013-10-04 00:07:00,
2013-10-03 20:12:00,67.7,64.0,30.09,ESE,111,0.0,5.0,88,0.00,,,0.01,0,HR-IXPWINDi_r2_v1.2.,2013-10-04 00:12:00,
2013-10-03 20:17:00,67.5,63.8,30.09,ESE,111,2.0,5.0,88,0.00,,,0.01,0,HR-IXPWINDi_r2_v1.2.,2013-10-04 00:17:00,
2013-10-03 20:22:00,67.0,63.6,30.09,SSE,154,0.0,7.0,89,0.00,,,0.01,0,HR-IXPWINDi_r2_v1.2.,2013-10-04 00:22:00,
2013-10-03 20:27:00,67.0,63.6,30.09,SSE,154,0.0,7.0,89,0.00,,,0.01,0,HR-IXPWINDi_r2_v1.2.,2013-10-04 00:27:00,
2013-10-03 20:32:00,66.8,63.4,30.09,SE,132,0.0,1.0,89,0.00,,,0.01,0,HR-IXPWINDi_r2_v1.2.,2013-10-04 00:32:00,
2013-10-03 20:38:00,66.7,63.3,30.09,SE,132,0.0,2.0,89,0.00,,,0.01,0,HR-IXPWINDi_r2_v1.2.,2013-10-04 00:38:00,
2013-10-03 20:43:00,66.3,62.9,30.10,SE,132,0.0,2.0,89,0.00,,,0.01,0,HR-IXPWINDi_r2_v1.2.,2013-10-04 00:43:00,
2013-10-03 20:48:00,66.1,62.7,30.10,ESE,117,1.0,4.0,89,0.00,,,0.01,0,HR-IXPWINDi_r2_v1.2.,2013-10-04 00:48:00,
2013-10-03 20:53:00,65.6,62.5,30.10,ESE,118,0.0,4.0,90,0.00,,,0.01,0,HR-IXPWINDi_r2_v1.2.,2013-10-04 00:53:00,
2013-10-03 20:58:00,65.4,62.3,30.10,ESE,118,2.0,4.0,90,0.00,,,0.01,0,HR-IXPWINDi_r2_v1.2.,2013-10-04 00:58:00,
2013-10-03 21:04:00,65.0,62.2,30.10,ESE,118,0.0,4.0,91,0.00,,,0.01,0,HR-IXPWINDi_r2_v1.2.,2013-10-04 01:04:00,
2013-10-03 21:09:00,64.7,61.9,30.10,ESE,117,2.0,4.0,91,0.00,,,0.01,0,HR-IXPWINDi_r2_v1.2.,2013-10-04 01:09:00,
2013-10-03 21:14:00,64.4,61.6,30.10,ESE,107,0.0,4.0,91,0.00,,,0.01,0,HR-IXPWINDi_r2_v1.2.,2013-10-04 01:14:00,
2013-10-03 21:19:00,64.3,61.9,30.11,ESE,107,0.0,4.0,92,0.00,,,0.01,0,HR-IXPWINDi_r2_v1.2.,2013-10-04 01:19:00,
2013-10-03 21:24:00,63.8,61.1,30.11,ESE,107,0.0,2.0,91,0.00,,,0.01,0,HR-IXPWINDi_r2_v1.2.,2013-10-04 01:24:00,
2013-10-03 21:29:00,63.4,61.0,30.10,ESE,107,0.0,2.0,92,0.00,,,0.01,0,HR-IXPWINDi_r2_v1.2.,2013-10-04 01:29:00,
2013-10-03 21:35:00,63.2,60.8,30.10,ESE,107,2.0,4.0,92,0.00,,,0.01,0,HR-IXPWINDi_r2_v1.2.,2013-10-04 01:35:00,
2013-10-03 21:40:00,63.3,61.2,30.11,SE,135,4.0,5.0,93,0.00,,,0.01,0,HR-IXPWINDi_r2_v1.2.,2013-10-04 01:40:00,
2013-10-03 21:45:00,63.2,60.8,30.11,SE,136,0.0,5.0,92,0.00,,,0.01,0,HR-IXPWINDi_r2_v1.2.,2013-10-04 01:45:00,
2013-10-03 21:50:00,63.0,60.9,30.11,SE,136,0.0,4.0,93,0.00,,,0.01,0,HR-IXPWINDi_r2_v1.2.,2013-10-04 01:50:00,
2013-10-03 21:55:00,62.7,60.6,30.11,SE,136,1.0,5.0,93,0.00,,,0.01,0,HR-IXPWINDi_r2_v1.2.,2013-10-04 01:55:00,
2013-10-03 22:01:00,62.5,60.4,30.11,SE,135,0.0,5.0,93,0.00,,,0.01,0,HR-IXPWINDi_r2_v1.2.,2013-10-04 02:01:00,
2013-10-03 22:06:00,62.3,60.2,30.11,SE,136,0.0,6.0,93,0.00,,,0.01,0,HR-IXPWINDi_r2_v1.2.,2013-10-04 02:06:00,
2013-10-03 22:11:00,62.2,60.1,30.12,SE,139,6.0,6.0,93,0.00,,,0.01,0,HR-IXPWINDi_r2_v1.2.,2013-10-04 02:11:00,
2013-10-03 22:16:00,62.1,60.0,30.12,SE,126,0.0,6.0,93,0.00,,,0.01,0,HR-IXPWINDi_r2_v1.2.,2013-10-04 02:16:00,
2013-10-03 22:21:00,62.0,59.9,30.12,SE,126,0.0,6.0,93,0.00,,,0.01,0,HR-IXPWINDi_r2_v1.2.,2013-10-04 02:21:00,
2013-10-03 22:27:00,61.8,59.7,30.12,SE,126,0.0,4.0,93,0.00,,,0.01,0,HR-IXPWINDi_r2_v1.2.,2013-10-04 02:27:00,
2013-10-03 22:32:00,61.8,59.7,30.12,SE,126,0.0,4.0,93,0.00,,,0.01,0,HR-IXPWINDi_r2_v1.2.,2013-10-04 02:32:00,
2013-10-03 22:37:00,61.6,59.5,30.12,SE,126,0.0,2.0,93,0.00,,,0.01,0,HR-IXPWINDi_r2_v1.2.,2013-10-04 02:37:00,
2013-10-03 22:42:00,61.4,59.3,30.12,SE,126,0.0,2.0,93,0.00,,,0.01,0,HR-IXPWINDi_r2_v1.2.,2013-10-04 02:42:00,
2013-10-03 22:47:00,61.2,59.4,30.12,SE,126,2.0,2.0,94,0.00,,,0.01,0,HR-IXPWINDi_r2_v1.2.,2013-10-04 02:47:00,
2013-10-03 22:52:00,61.0,59.2,30.12,SE,126,0.0,4.0,94,0.00,,,0.01,0,HR-IXPWINDi_r2_v1.2.,2013-10-04 02:52:00,
2013-10-03 22:57:00,60.8,59.0,30.12,SE,126,0.0,4.0,94,0.00,,,0.01,0,HR-IXPWINDi_r2_v1.2.,2013-10-04 02:57:00,
2013-10-03 23:02:00,60.6,58.8,30.12,SE,126,0.0,1.0,94,0.00,,,0.01,0,HR-IXPWINDi_r2_v1.2.,2013-10-04 03:02:00,
2013-10-03 23:07:00,60.6,59.1,30.12,SE,126,0.0,1.0,95,0.00,,,0.01,0,HR-IXPWINDi_r2_v1.2.,2013-10-04 03:07:00,
2013-10-03 23:12:00,60.4,58.6,30.12,SE,126,0.0,4.0,94,0.00,,,0.01,0,HR-IXPWINDi_r2_v1.2.,2013-10-04 03:12:00,
2013-10-03 23:18:00,60.4,58.9,30.12,SE,126,0.0,4.0,95,0.00,,,0.01,0,HR-IXPWINDi_r2_v1.2.,2013-10-04 03:18:00,
2013-10-03 23:23:00,60.4,58.9,30.12,SE,126,1.0,4.0,95,0.00,,,0.01,0,HR-IXPWINDi_r2_v1.2.,2013-10-04 03:23:00,
2013-10-03 23:28:00,60.2,58.7,30.12,SE,126,0.0,4.0,95,0.00,,,0.01,0,HR-IXPWINDi_r2_v1.2.,2013-10-04 03:28:00,
2013-10-03 23:33:00,60.1,58.6,30.12,SE,126,0.0,4.0,95,0.00,,,0.01,0,HR-IXPWINDi_r2_v1.2.,2013-10-04 03:33:00,
2013-10-03 23:38:00,60.2,58.7,30.13,SE,126,0.0,1.0,95,0.00,,,0.01,0,HR-IXPWINDi_r2_v1.2.,2013-10-04 03:38:00,
2013-10-03 23:43:00,60.2,58.7,30.13,SE,126,0.0,4.0,95,0.00,,,0.01,0,HR-IXPWINDi_r2_v1.2.,2013-10-04 03:43:00,
2013-10-03 23:48:00,60.0,58.5,30.13,SE,126,0.0,4.0,95,0.00,,,0.01,0,HR-IXPWINDi_r2_v1.2.,2013-10-04 03:48:00,
2013-10-03 23:53:00,59.8,58.3,30.13,SE,126,0.0,1.0,95,0.00,,,0.01,0,HR-IXPWINDi_r2_v1.2.,2013-10-04 03:53:00,
2013-10-03 23:59:00,59.8,58.3,30.13,SE,126,0.0,1.0,95,0.00,,,0.00,0,HR-IXPWINDi_r2_v1.2.,2013-10-04 03:59:00,